365  
SXUS52 KJAX 081010  
OSOJAX  
OTHER SURFACE OBSERVATIONS  
NATIONAL WEATHER SERVICE JACKSONVILLE FL  
500 AM EST THU DEC 08 2022  
 
FLZ020>025-030>033-035>038-040-081100-   
..FLORIDA
 
 
 
CITY SKY/WX TMP DP RH WIND PRES REMARKS  
CECIL FIELD FOG 54 54 100 CALM 30.23S VSB<1/4  
FERNANDINA BCH FAIR 59 57 94 SW3 30.22F  
LAKE CITY FOG 59 59 100 CALM 30.23S VSB 1  
KEYSTONE HGTS FOG 57 57 100 CALM 30.23S VSB 0  

 
 
GAZ132>136-149>154-162>166-081100-   
..GEORGIA
 
 
 
CITY SKY/WX TMP DP RH WIND PRES REMARKS  
JESUP FOG 55 54 94 CALM 30.24F VSB 1  
HOMERVILLE FOG 56 55 97 CALM 30.23F VSB 1/4  
SWAINSBORO FAIR 59 59 100 CALM 30.21F FOG  
CORDELE FAIR 58 57 95 CALM 30.24F  
EASTMAN FAIR 54 54 100 CALM 30.22F  

 
 
PLEASE NOTE: THESE OBSERVATIONS ARE NOT QUALITY CONTROLLED AND MAY  
NOT BE AVAILABLE AT ALL TIMES.  

 
 
 
CLICK HERE TO GO TO PREVIOUS BULLETINS.

The Nexlab FL Page
The Nexlab GA Page Main Text Page